Location: Newark
(27.9675°N, 86.8869°E)
Time: 09:04:17
(UTC+00:00)

deb Explorer IX - Pass Details

Date: 24 October 2019
Orbit: 546 x 1105 km, 38.8° (Epoch: 13 November)

Event Time Altitude Azimuth Distance (km) Brightness Sun altitude
Rises 13:47:08 0° 273° (W) 3,746 ? -29.8°
Reaches altitude 10° 13:51:44 10° 246° (WSW) 2,882 ? -30.8°
Maximum altitude 13:54:21 12° 224° (SW) 2,748 ? -31.4°
Drops below altitude 10° 13:57:01 10° 202° (SSW) 2,938 ? -31.9°
Enters shadow 14:01:23 - 177° (S) 3,782 ? -32.9°
Sets 14:01:53 0° 174° (S) 3,902 - -33.0°
